Content
SEND FEEDBACK

Daily
Averages
Monthly
Summary
Mexico

SAN MARTINIANO, QUINTANA ROO


Home > North America > Mexico > Quintana Roo
Elevation: 49 feet     Latitude: 20 47N     Longitude: 087 16W

WEATHER
 
SELECT A DAY
Number of Records: 204,286;   Date Range: 2/21/06 - 11/24/14
 
SHARE

PRINT THIS DATA

[ ← Previous Day ]
WEATHER ALMANAC - JANUARY 27, 2013
[ Next Day → ]
[ °C ]   °F
Weather ElementAverageHighLow
Temperature65.5 °F80.6 °F (2:15 pm)50 °F (4:55 am)
Dewpoint30.2 °F62.6 °F (11:35 pm) (7:00 pm)
Humidity51.1 %100 % (11:35 pm)28 % (3:55 pm)
Barometer30.29 in30.34 in (9:55 am)30.25 in (3:15 pm)
Wind Speed4.4 mph10.4 mph (12:15 pm)
Weather ElementAverage
Visibility7.1 mi
Wind DirectionENE (55.1 °)

Weather ElementTotal
Precipitation---
Cooling Degree Days0.3 (Base 65)
Growing Degree Days15.3 (Base 50)
Averaged from 70 records on January 27, 2013
WEATHER CONDITIONS BREAKOUT
WIND DIRECTION BREAKOUT
WEATHER BY HOUR - JANUARY 27, 2013
[ °C ]   °F
Local TimeTemperatureDewpointHumidityBarometerVisibilityWind DirectionWind SpeedGust SpeedPrecipitationEventsConditions
12:35 AM53.6 °F0.0 °F30.27 in4.0 miCalmHaze
12:55 AM53.6 °F0.0 °F30.27 in7.0 miCalmClear
1:15 AM51.8 °F0.0 °F30.27 in4.0 miCalmHaze
1:35 AM53.6 °F0.0 °F30.27 in5.0 miCalmHaze
1:55 AM51.8 °F0.0 °F30.27 in5.0 miCalmHaze
2:15 AM55.4 °F0.0 °F30.27 in2.0 miCalmClear
2:35 AM51.8 °F0.0 °F30.27 in0.2 miCalmFogFog
2:55 AM51.8 °F0.0 °F30.27 in5.0 miCalmHaze
3:15 AM51.8 °F0.0 °F30.27 in5.0 miCalmHaze
3:35 AM51.8 °F0.0 °F30.27 in1.8 miCalmScattered Clouds
3:55 AM51.8 °F0.0 °F30.27 in0.2 miCalmFogFog
4:15 AM51.8 °F0.0 °F30.27 in0.5 miCalmFogFog
4:35 AM51.8 °F0.0 °F30.27 in0.2 miCalmFogFog
4:55 AM50.0 °F0.0 °F30.27 in0.2 miCalmFogFog
5:15 AM50.0 °F0.0 °F30.27 in2.5 miCalmClear
5:35 AM50.0 °F0.0 °F30.28 in0.2 miENE (70°)4.6 mphFogFog
5:55 AM53.6 °F0.0 °F30.28 in2.5 miENE (60°)3.5 mphClear
6:15 AM51.8 °F0.0 °F30.29 in2.0 miNE (50°)3.5 mphClear
6:35 AM51.8 °F0.0 °F30.29 in0.2 miCalmFogFog
7:15 AM51.8 °F0.0 °F30.30 in0.5 miNE (40°)3.5 mphFogFog
7:35 AM51.8 °F0.0 °F30.30 in1.2 miCalmMist
7:55 AM53.6 °F0.0 °F30.31 in1.2 miCalmMist
8:15 AM55.4 °F0.0 °F30.31 in1.0 miENE (70°)3.5 mphMist
8:35 AM59.0 °F0.0 °F30.32 in3.0 miENE (60°)3.5 mphClear
8:55 AM60.8 °F0.0 °F30.33 in3.0 miNE (50°)5.8 mphScattered Clouds
9:15 AM60.8 °F0.0 °F30.33 in4.0 miNE (40°)4.6 mphHaze
9:35 AM62.6 °F0.0 °F30.33 in5.0 miNE (50°)4.6 mphHaze
9:55 AM64.4 °F0.0 °F30.34 in10.0 miNE (40°)6.9 mphClear
10:15 AM68.0 °F0.0 °F30.34 in10.0 miNE (50°)8.1 mphClear
10:35 AM69.8 °F60.8 °F73 %30.34 in10.0 miNE (50°)5.8 mphClear
10:55 AM71.6 °F59.0 °F64 %30.34 in10.0 miEast (90°)5.8 mphClear
11:15 AM73.4 °F57.2 °F57 %30.34 in10.0 miESE (110°)5.8 mphClear
11:35 AM75.2 °F55.4 °F50 %30.33 in10.0 miNE (50°)4.6 mphClear
11:55 AM75.2 °F53.6 °F47 %30.33 in10.0 miEast (80°)6.9 mphClear
12:15 PM77.0 °F51.8 °F41 %30.32 in10.0 miENE (60°)10.4 mphClear
12:35 PM77.0 °F51.8 °F41 %30.30 in10.0 miENE (60°)5.8 mphClear
12:55 PM78.8 °F51.8 °F39 %30.30 in10.0 miEast (100°)9.2 mphClear
1:15 PM78.8 °F50.0 °F36 %30.29 in10.0 miENE (70°)10.4 mphClear
1:35 PM78.8 °F50.0 °F36 %30.28 in10.0 miEast (80°)8.1 mphClear
1:55 PM78.8 °F50.0 °F36 %30.27 in10.0 miESE (110°)6.9 mphClear
2:15 PM80.6 °F51.8 °F37 %30.27 in10.0 miEast (80°)5.8 mphClear
2:35 PM80.6 °F48.2 °F32 %30.26 in10.0 miENE (70°)10.4 mphClear
2:55 PM80.6 °F48.2 °F32 %30.26 in10.0 miESE (110°)5.8 mphClear
3:15 PM80.6 °F48.2 °F32 %30.25 in10.0 miEast (100°)8.1 mphClear
3:35 PM80.6 °F46.4 °F30 %30.25 in10.0 miENE (70°)9.2 mphClear
3:55 PM80.6 °F44.6 °F28 %30.25 in10.0 miENE (70°)6.9 mphClear
4:15 PM80.6 °F46.4 °F30 %30.25 in10.0 miEast (80°)6.9 mphClear
4:35 PM78.8 °F48.2 °F34 %30.25 in10.0 miEast (90°)9.2 mphClear
4:55 PM78.8 °F48.2 °F34 %30.26 in10.0 miEast (80°)9.2 mphClear
5:15 PM78.8 °F48.2 °F34 %30.26 in10.0 miEast (80°)9.2 mphClear
5:35 PM77.0 °F50.0 °F39 %30.27 in10.0 miEast (80°)4.6 mphClear
5:55 PM77.0 °F50.0 °F39 %30.28 in10.0 miEast (90°)5.8 mphClear
6:15 PM73.4 °F51.8 °F47 %30.28 in10.0 miEast (90°)4.6 mphClear
6:35 PM73.4 °F51.8 °F47 %30.29 in10.0 miEast (100°)5.8 mphClear
6:55 PM71.6 °F51.8 °F50 %30.30 in10.0 miESE (110°)4.6 mphScattered Clouds
7:15 PM71.6 °F51.8 °F50 %30.30 in10.0 miEast (90°)4.6 mphScattered Clouds
7:35 PM69.8 °F53.6 °F56 %30.30 in10.0 miEast (100°)6.9 mphClear
7:55 PM69.8 °F53.6 °F56 %30.31 in10.0 miEast (90°)8.1 mphClear
8:15 PM69.8 °F53.6 °F56 %30.31 in10.0 miEast (80°)6.9 mphClear
8:35 PM68.0 °F55.4 °F64 %30.32 in10.0 miEast (80°)6.9 mphClear
8:55 PM68.0 °F55.4 °F64 %30.32 in10.0 miEast (90°)8.1 mphClear
9:15 PM66.2 °F55.4 °F68 %30.33 in10.0 miEast (80°)4.6 mphClear
9:35 PM66.2 °F55.4 °F68 %30.33 in10.0 miEast (80°)4.6 mphClear
9:55 PM66.2 °F57.2 °F73 %30.33 in10.0 miEast (80°)3.5 mphClear
10:15 PM64.4 °F57.2 °F77 %30.33 in10.0 miEast (80°)3.5 mphClear
10:35 PM64.4 °F57.2 °F77 %30.33 in10.0 miENE (70°)4.6 mphClear
10:55 PM64.4 °F59.0 °F83 %30.33 in10.0 miEast (80°)3.5 mphClear
11:15 PM62.6 °F59.0 °F88 %30.32 in10.0 miCalmClear
11:35 PM62.6 °F62.6 °F100 %30.32 in10.0 miENE (70°)3.5 mphClear
11:55 PM62.6 °F0.0 °F30.32 in10.0 miNE (50°)3.5 mphClear
Hourly data recorded from KPCM, located miles away from San Martiniano, Quintana Roo







STORIES FROM OUR PARTNERS